Погода в Махабалешваре

Индия     17°55′34″N   73°39′33″E
темп.,
°C
ветер,
м/с
пор.,
м/с
влажн.,
%
обл.,
%
осадки,
мм/ч
давл.,
гПа
погр.,
м
24 июля, сб
сб2423:30+19ююз2399100 61.2 1006140
02:30+19зюз3499100 29.6 1005200
05:30+20з3599100 31.8 1005317
08:30+20з3599100 0.3 1007272
11:30+21зюз3599100 0.4 1008417
14:30+21з3799100 0.6 1006579
17:30+20з3799100 1.3 1006512
20:30+20зюз3799100 0.2 1007397
25 июля, вс
вс2523:30+20зюз3699100 0.5 1008354
02:30+20зюз3899100 0.7 1006564
05:30+20з4898100 1.3 1006535
08:30+20з4998100 0.4 1008676
11:30+21з3898100 0.8 1008595
14:30+21з4897100 0.8 1007637
17:30+20з4997100 1.5 1006660
20:30+20зюз3799100 0.4 1007418
26 июля, пн
пн2623:30+20зюз3799100 1.3 1008401
02:30+20зюз3899100 0.8 1007541
05:30+20зюз31099100 1.7 1007546
08:30+20зюз31098100 0.6 1009605
11:30+21з51197100 1.3 1008873
14:30+21з51194100 1.3 1007921
17:30+20зюз5119597 2.8 1007883
20:30+20зюз499697 1.3 1008674
27 июля, вт
вт2723:30+20зюз4998100 2.2 1009610
02:30+20зюз41097100 0.8 1007770
05:30+20зюз41197100 1.6 1007854
08:30+20зюз41092100 0.9 1008811
11:30+22зюз61287100 1.8 10071025
14:30+22з61186100 1.2 10061003
17:30+21зюз51192100 2.5 1006895
20:30+20зюз4995100 1.1 1008652
28 июля, ср
ср2823:30+20зюз41096100 1.9 1009710
02:30+19зюз4109597 1.0 1007770
05:30+19зюз41096100 2.0 1007763
08:30+20зюз4109493 1.1 1008743
11:30+21зюз51191100 2.4 1009937
14:30+21зюз5119186 1.6 1007788
17:30+21зюз51293100 3.2 1006861
20:30+20зюз51196100 1.1 1008885